GFSMW_850_thetae_273.txt.gz
Theta_e
341 339 339 339 339 339 340 341 339 342 347 349 352 351 353 351 349 350 354 350 353 350 352 351 349 347 350 351 348 345 335 338 338 342 342 342 343 343 342 341 341 341 339
339 339 339 339 339 339 340 340 341 342 344 347 348 351 352 352 349 352 351 349 348 349 349 350 345 348 352 350 353 353 349 341 333 338 338 342 341 340 337 337 339 339 339
341 339 339 339 339 339 339 339 342 342 343 345 348 351 353 354 352 353 350 349 349 350 350 348 345 347 350 352 348 352 354 350 339 341 340 341 339 332 338 338 338 336 336
342 342 339 339 340 340 341 339 339 342 344 346 347 349 351 353 353 354 354 352 350 351 352 353 352 353 350 350 350 351 352 351 347 342 344 341 333 336 337 337 338 338 336
344 342 341 342 342 341 342 342 339 339 344 346 345 347 348 350 351 350 351 353 351 352 353 353 353 352 353 352 351 349 352 353 350 342 340 344 336 340 338 338 339 339 338
344 344 343 343 343 341 342 343 342 338 339 341 341 341 342 348 350 350 349 353 354 354 353 350 350 352 353 355 351 351 350 355 353 350 344 341 340 341 340 340 339 338 338
342 343 343 344 344 343 342 343 344 342 340 340 341 339 339 345 346 346 348 349 352 354 352 350 349 353 354 355 354 351 348 350 350 352 352 350 343 340 342 338 339 339 338
340 343 344 344 345 344 343 343 344 344 344 342 336 334 334 335 342 345 344 344 348 347 349 349 350 354 356 356 351 350 350 347 345 346 348 349 348 344 342 341 340 339 336
340 340 342 344 344 344 344 344 344 343 343 344 344 342 339 337 335 337 336 336 340 342 342 342 345 345 347 349 351 352 349 347 341 344 347 346 341 345 343 344 340 340 335
343 342 342 342 344 343 343 343 344 344 344 344 344 346 346 342 338 337 336 333 332 331 331 340 346 351 350 349 347 342 336 340 344 347 345 345 341 342 345 345 343 340 335
343 345 344 343 343 343 342 343 343 343 344 344 344 345 346 347 340 331 331 329 329 333 340 346 345 345 336 334 337 348 349 347 347 349 349 346 343 343 344 345 344 339 331
347 345 345 345 344 344 343 342 342 343 343 343 344 344 346 347 339 332 335 339 333 328 330 335 337 342 348 349 347 343 346 350 347 347 350 346 346 343 346 346 344 333 331
348 347 346 343 343 343 343 343 343 343 343 343 344 344 346 348 335 338 346 347 345 346 347 349 348 344 346 350 348 350 350 352 347 346 349 350 345 344 345 346 343 334 331
348 347 346 344 343 343 343 343 343 343 343 344 344 344 346 348 339 347 353 353 353 351 349 346 348 346 349 348 350 349 346 345 344 347 347 349 345 344 346 345 342 333 329
347 347 347 346 345 344 344 344 344 344 345 346 347 347 348 349 348 354 353 352 353 352 348 349 350 347 345 342 341 340 342 346 347 347 346 348 346 344 345 344 343 336 329
348 348 347 346 346 345 344 346 347 347 348 349 351 350 350 351 353 354 352 352 353 352 350 350 349 347 341 341 343 348 348 348 346 346 348 347 348 345 345 344 342 334 330
348 348 347 347 347 347 348 349 350 351 351 353 354 353 353 353 354 352 350 351 351 349 349 346 342 343 348 350 351 349 349 347 347 348 349 348 347 346 346 344 341 333 324
348 348 348 348 349 351 351 350 350 350 352 356 357 356 355 355 353 351 351 348 344 342 343 346 347 348 349 348 349 348 345 343 343 344 345 348 348 347 344 345 342 332 319
346 348 348 349 350 351 352 352 352 352 351 354 355 354 353 351 350 348 345 341 342 342 343 342 346 351 352 352 350 347 343 341 342 343 344 347 348 346 343 343 338 330 318
350 349 350 350 352 353 351 351 350 350 350 349 348 348 347 346 343 342 342 341 338 332 334 339 346 351 351 352 350 344 343 342 341 343 342 346 347 344 339 334 332 324 319
354 352 353 354 353 350 350 349 348 347 347 345 343 341 340 341 341 338 335 329 327 330 331 331 343 350 348 350 347 342 343 343 344 343 344 344 343 342 333 331 329 321 318
354 355 354 353 350 349 349 348 347 342 339 336 337 336 332 328 322 319 319 320 321 321 325 334 341 342 343 344 344 345 344 344 343 343 343 343 344 341 339 339 334 323 319
354 355 354 351 350 348 347 347 345 343 341 339 332 326 323 320 321 322 320 319 318 317 319 324 336 336 338 339 341 342 342 343 342 343 343 342 341 340 341 337 334 326 321
354 352 351 349 348 346 345 344 343 339 334 336 330 322 323 325 326 323 322 322 319 317 317 317 320 325 328 335 337 340 341 342 341 341 344 343 342 341 340 338 336 331 323
351 351 350 347 346 345 344 343 341 335 324 320 322 325 326 325 325 326 326 324 322 322 321 319 317 316 319 323 325 333 332 338 340 340 340 342 340 341 341 338 340 333 324
343 346 347 345 343 343 343 338 331 321 321 325 328 328 328 327 329 327 325 325 324 322 322 321 320 317 316 321 328 334 334 335 339 339 340 339 338 339 340 341 339 337 330

GFSMW_850_thetae_276.txt.gz
Theta_e
340 339 339 340 340 341 341 340 341 339 340 345 349 351 350 352 350 349 350 349 350 350 351 352 351 345 347 350 348 349 348 340 337 333 337 341 342 344 344 342 341 340 336
339 341 340 340 340 339 339 339 340 339 347 348 350 351 351 351 347 348 348 347 348 348 350 350 346 344 350 344 348 346 350 350 347 339 338 339 341 341 338 337 338 337 337
341 342 340 339 339 339 339 339 340 339 344 347 348 349 352 351 350 349 350 348 350 350 350 350 350 349 346 348 346 347 348 352 351 343 340 339 339 334 335 337 338 336 337
342 342 341 340 339 338 339 339 339 340 340 343 346 348 350 351 352 352 353 352 351 351 350 352 353 352 352 351 348 349 348 353 353 349 342 337 339 334 339 338 338 338 338
343 342 341 342 340 339 339 339 339 341 341 342 344 347 348 351 351 351 351 350 352 352 351 352 352 352 352 353 353 351 347 348 352 350 348 345 341 338 340 337 338 336 338
342 343 342 342 341 340 340 340 340 339 342 344 343 345 346 348 349 351 349 349 350 350 352 353 352 349 349 352 352 352 350 348 347 345 344 342 342 340 339 340 339 335 338
340 342 342 342 342 341 341 341 341 341 340 341 346 343 343 344 343 344 349 349 348 352 353 352 351 349 351 352 351 350 348 348 348 344 340 339 336 336 340 341 340 333 338
340 341 342 343 343 342 343 342 341 343 343 340 339 340 340 340 340 340 344 344 345 346 347 347 347 347 348 347 346 346 349 351 351 347 340 339 340 339 339 341 342 337 339
341 341 341 342 342 342 343 344 342 343 343 343 342 339 336 336 334 335 335 340 343 338 339 341 337 339 344 348 350 350 347 346 338 342 344 347 346 342 339 339 342 343 340
341 340 340 341 341 341 342 344 343 343 342 342 343 343 342 341 340 339 336 336 339 338 335 333 335 344 346 344 342 338 335 344 346 342 345 348 348 344 341 341 344 344 342
343 343 342 341 340 341 341 342 344 343 343 343 343 344 344 345 346 346 343 342 340 335 333 334 340 339 335 331 341 348 348 343 347 350 347 345 348 345 342 342 345 344 342
346 345 343 343 341 341 342 342 343 343 344 343 343 343 344 344 345 347 347 339 340 340 333 330 330 332 344 347 343 346 348 350 350 352 348 346 349 349 345 342 346 345 338
346 343 343 344 344 343 343 342 342 344 343 343 343 343 343 344 344 346 345 339 345 345 346 346 347 347 346 346 346 348 347 348 347 345 345 347 347 347 346 342 344 345 331
345 345 344 346 344 344 344 344 343 343 342 342 342 343 343 343 344 346 342 344 351 352 351 350 349 348 349 349 347 345 341 340 341 346 347 347 346 347 344 344 345 342 333
345 345 346 347 346 345 343 343 342 343 343 343 343 343 345 344 346 348 341 349 353 349 348 347 348 350 349 348 343 340 343 345 347 348 346 346 346 347 344 344 345 341 332
347 348 347 347 347 347 346 345 344 343 343 343 343 344 346 348 348 349 345 352 351 350 347 349 349 347 343 342 346 348 349 349 348 346 346 348 348 348 346 346 344 338 333
348 348 347 346 346 346 346 346 345 344 344 344 345 347 349 350 350 350 350 351 350 349 349 347 342 345 345 347 348 348 349 346 344 342 344 347 348 348 347 346 342 337 332
347 347 346 347 347 346 346 345 346 346 347 349 350 352 354 353 353 352 352 351 349 348 344 341 343 342 347 350 350 349 347 343 342 342 341 342 347 348 347 344 342 335 329
345 346 347 347 347 347 347 348 348 350 350 351 352 354 354 354 354 354 352 349 347 341 339 336 333 346 349 351 351 350 342 343 341 342 341 344 348 347 344 343 340 330 322
351 347 347 348 348 348 349 349 350 350 350 350 352 355 355 354 353 350 348 345 340 339 331 328 328 345 350 349 349 346 342 342 343 342 342 344 346 344 343 339 329 323 320
348 351 349 350 350 350 350 350 350 349 348 350 351 351 351 350 348 345 342 340 336 327 322 320 330 341 343 345 344 344 344 344 344 342 342 345 343 343 337 326 327 325 319
343 353 351 350 351 351 351 351 348 347 349 349 348 345 344 343 341 340 337 327 321 317 317 321 326 332 335 338 341 341 341 342 342 342 342 342 343 339 335 336 338 327 319
344 351 354 352 352 353 352 349 347 347 346 345 343 342 340 333 327 322 318 316 316 316 317 318 320 323 323 330 336 337 335 340 341 341 342 341 340 340 339 337 334 324 320
332 343 351 353 353 353 350 348 347 343 341 338 338 334 328 324 323 322 321 318 317 316 315 315 315 315 316 318 322 335 339 339 340 340 343 340 341 340 339 336 335 327 323
343 344 346 351 352 350 349 347 345 343 341 338 334 330 327 327 325 324 323 321 319 318 316 316 316 315 314 314 318 321 330 332 334 339 341 339 339 340 339 338 336 335 328
343 347 347 347 346 345 345 344 342 340 336 337 334 331 331 329 328 325 323 322 321 320 320 318 316 314 314 314 316 323 326 331 332 337 336 336 338 338 339 338 338 338 337

GFSMW_850_thetae_279.txt.gz
Theta_e
340 340 340 340 340 340 341 341 342 341 343 342 343 345 348 349 349 349 349 348 348 350 350 351 351 347 345 351 349 347 345 350 350 348 342 334 338 342 344 343 338 340 339
341 340 339 339 340 340 340 341 341 341 342 340 343 349 350 351 350 349 349 347 347 348 349 350 350 346 346 345 346 345 347 347 350 350 345 341 341 339 339 336 338 337 335
341 341 340 340 339 339 340 339 340 340 341 342 346 351 350 350 349 346 349 348 348 350 351 351 351 352 352 351 349 349 347 348 348 352 348 344 342 340 335 337 338 338 336
341 341 341 341 341 340 339 339 339 339 340 343 347 348 350 352 349 350 350 351 351 351 350 350 352 352 351 351 352 352 349 349 347 345 344 343 343 339 338 339 338 336 335
341 342 341 342 342 341 340 339 339 339 340 339 345 346 348 349 350 351 351 351 348 350 352 351 351 351 351 348 348 350 350 350 348 345 341 340 331 332 335 338 338 339 339
341 341 342 343 343 341 340 339 339 339 340 341 342 344 345 347 349 350 351 349 348 348 350 351 352 350 351 349 348 353 350 348 345 346 343 337 331 329 333 335 337 339 336
341 342 341 343 342 341 341 340 339 339 340 341 343 343 343 345 346 347 347 347 349 349 349 352 353 352 350 348 348 346 345 345 347 348 347 337 335 333 337 336 337 339 338
342 342 341 342 342 342 341 341 341 340 340 340 340 342 345 346 345 344 342 341 345 346 345 345 344 346 345 340 339 346 346 347 347 346 343 342 343 343 344 339 338 340 340
342 343 342 341 341 342 342 342 341 340 341 342 342 340 339 342 343 341 341 340 337 338 343 338 337 336 334 338 343 345 345 343 340 346 347 345 345 346 346 342 341 340 338
343 343 343 342 342 342 342 342 342 343 342 342 343 343 341 339 339 339 340 339 338 338 339 336 332 331 337 342 341 337 340 350 348 346 349 350 349 346 347 343 342 342 340
343 343 345 345 344 342 341 341 342 343 343 342 341 341 340 342 343 344 345 346 343 339 336 336 331 329 332 334 336 348 348 348 348 347 348 347 346 346 348 344 344 344 342
344 343 343 344 343 342 341 341 341 342 343 343 342 341 341 343 344 344 345 346 347 339 340 336 339 341 345 348 346 345 348 347 344 342 342 343 347 347 346 345 344 344 343
340 344 343 343 343 342 342 341 341 342 343 343 343 342 342 343 343 344 345 345 347 340 346 349 350 350 349 349 349 350 347 346 342 342 344 348 348 347 347 346 343 346 342
340 344 344 345 343 344 344 343 342 342 342 343 344 343 343 343 343 343 344 345 346 341 352 350 349 348 348 349 349 348 344 343 347 348 349 348 347 348 347 345 344 345 340
338 343 345 345 344 344 345 344 344 344 342 343 343 342 342 343 343 343 344 346 346 346 349 349 349 348 348 347 343 343 348 348 348 347 345 348 350 349 347 345 345 343 337
341 343 344 345 345 345 346 346 345 343 343 343 343 342 342 343 345 346 345 348 344 350 350 350 348 348 343 344 345 347 348 348 345 343 343 346 349 350 349 347 344 340 334
345 344 344 346 345 347 347 345 345 344 343 343 343 343 343 343 345 347 347 349 347 351 350 348 347 340 341 342 349 349 348 346 342 342 343 343 347 349 348 346 341 336 331
346 348 344 347 347 346 345 345 345 345 345 344 343 343 343 345 347 350 350 349 350 351 349 347 342 335 333 347 349 350 349 342 341 341 342 342 348 348 347 344 340 335 330
338 346 346 346 347 346 345 345 345 345 345 344 344 345 347 350 352 352 352 351 352 350 348 343 335 325 332 346 347 348 343 343 341 342 341 343 345 345 343 341 337 333 329
334 338 351 348 346 346 346 346 346 346 346 348 349 350 351 353 353 353 353 353 350 347 343 337 326 322 327 341 345 346 344 343 343 343 341 342 342 344 343 337 329 323 320
341 332 345 353 350 347 347 347 348 348 350 350 350 350 352 354 354 353 352 349 346 342 335 325 320 323 326 331 338 343 343 343 343 343 341 342 343 343 341 334 333 325 320
336 343 335 346 353 350 348 349 350 350 350 350 350 352 353 353 351 349 346 344 341 334 325 321 322 325 329 330 331 336 335 328 342 341 342 341 343 339 336 338 337 322 320
331 344 345 338 345 352 351 350 350 351 350 350 350 350 349 347 345 343 341 337 328 324 324 324 324 324 322 321 321 329 334 330 340 340 341 340 339 339 338 337 333 323 320
326 330 345 346 348 352 351 351 351 350 348 348 347 345 343 340 337 333 326 322 321 321 320 319 319 316 315 316 319 323 334 337 337 339 340 340 339 340 339 335 333 324 322
325 328 336 346 347 350 352 352 349 347 345 339 343 340 333 330 325 322 319 319 318 318 317 316 316 315 314 313 315 319 324 331 332 337 338 339 340 340 339 338 335 334 327
323 327 331 341 343 346 349 349 346 344 343 341 338 332 327 325 325 324 322 321 320 319 319 317 315 313 314 314 314 314 318 322 329 333 335 336 338 338 339 339 337 337 336

GFSMW_850_thetae_282.txt.gz
Theta_e
343 344 344 345 345 346 348 349 349 349 349 352 352 352 351 353 355 352 352 350 354 355 355 353 354 352 353 349 355 354 354 351 345 346 348 345 348 347 344 339 336 337 339
343 343 343 344 344 345 347 349 342 342 342 350 350 352 354 354 355 354 353 351 346 354 351 350 356 353 355 351 355 352 351 352 353 347 343 341 343 344 342 336 338 338 338
342 343 344 343 343 344 347 348 340 341 342 344 350 352 357 355 355 352 352 354 348 349 350 351 353 353 352 356 356 356 352 352 353 349 342 343 339 333 338 340 338 338 337
345 344 343 345 344 344 345 347 340 340 341 340 348 352 355 354 353 352 354 356 350 350 351 352 351 351 354 353 356 355 354 354 352 351 344 337 336 329 328 330 336 333 336
345 345 345 344 345 345 345 347 342 339 341 340 343 352 353 354 355 354 356 354 354 349 348 350 351 352 356 354 350 349 350 352 354 351 348 343 339 336 332 329 332 336 336
345 345 345 345 345 346 346 346 347 339 339 339 339 343 354 354 354 354 355 352 351 352 356 355 352 351 353 354 356 354 350 350 351 352 352 348 347 343 339 334 332 336 336
345 345 346 346 346 346 346 346 347 339 339 339 340 339 342 349 354 352 353 353 350 349 352 355 349 354 354 348 350 354 352 353 353 353 351 346 343 344 345 342 334 337 337
346 346 345 345 347 347 346 347 346 340 339 339 339 340 342 352 351 353 353 352 350 348 352 353 346 344 341 349 351 345 352 355 353 351 347 346 350 348 347 345 339 338 338
347 346 346 345 345 346 345 346 347 342 340 341 341 340 340 342 350 354 354 352 350 346 343 345 339 337 340 346 350 349 351 350 350 354 350 348 352 350 347 346 344 341 339
347 347 347 347 346 346 346 345 344 339 339 340 341 342 342 340 339 341 340 343 345 338 337 337 335 333 338 348 351 350 348 354 354 351 351 350 348 344 347 346 343 343 340
345 347 347 347 347 347 346 347 347 347 343 341 344 344 343 342 339 338 339 343 345 346 341 334 336 332 333 339 343 352 354 355 355 355 353 353 353 350 349 345 344 344 343
335 343 348 348 348 347 347 346 347 347 347 344 343 341 341 338 338 341 343 344 345 345 346 338 341 345 349 354 357 356 355 354 355 355 354 353 352 351 350 348 345 345 343
338 341 347 348 348 348 347 347 347 346 348 345 343 342 337 337 339 342 343 344 344 345 346 342 350 349 356 356 351 351 354 354 353 352 352 353 353 353 350 348 346 344 343
341 344 347 349 350 350 349 348 348 347 349 345 343 343 341 340 342 343 343 343 344 345 345 345 350 349 350 350 352 347 347 351 352 354 356 354 351 354 350 347 345 345 342
344 347 350 351 351 351 348 345 347 349 349 344 343 343 343 343 343 343 343 344 345 346 344 353 350 349 349 352 342 344 347 350 352 350 345 344 347 350 348 346 346 345 337
348 350 350 352 353 354 347 344 344 344 348 345 343 343 343 344 343 343 343 345 347 349 344 352 351 350 348 340 340 348 351 348 344 342 343 343 344 349 350 349 345 339 335
346 348 352 353 354 354 354 352 346 344 344 344 343 343 343 343 342 343 344 354 357 349 346 350 350 348 344 333 345 349 349 346 341 341 341 342 345 348 349 346 341 335 332
343 345 346 354 354 355 354 348 351 345 344 343 343 343 343 343 344 343 346 354 355 353 348 351 349 346 336 327 341 349 349 348 343 342 341 344 348 347 347 344 340 331 324
339 344 346 354 355 357 356 352 350 346 345 345 345 344 343 343 344 347 353 356 356 350 351 349 346 340 328 323 337 347 346 344 346 343 341 343 345 344 343 342 339 334 328
334 341 345 349 356 357 357 356 353 347 351 353 358 356 352 347 351 356 357 355 351 351 348 346 343 332 323 320 331 345 346 344 344 344 342 342 344 344 342 340 334 329 325
332 336 343 345 349 356 357 356 356 356 356 357 348 351 353 358 358 358 354 353 351 349 347 343 334 324 321 322 328 335 338 339 341 342 342 342 343 342 339 333 329 324 319
330 333 337 345 349 352 358 357 358 359 358 355 350 354 352 356 359 354 353 350 348 346 342 333 325 321 321 324 322 326 331 331 333 341 341 342 341 337 335 335 335 324 322
330 332 335 338 347 351 350 354 356 357 355 354 353 354 350 350 352 350 348 346 344 342 336 325 322 333 327 322 316 316 321 330 337 340 341 340 338 339 338 338 327 322 326
329 332 333 336 340 349 348 353 353 354 353 353 351 350 350 351 346 343 343 343 340 338 336 332 331 328 325 317 315 317 327 332 335 337 340 340 339 339 339 336 326 328 330
329 331 332 333 337 342 345 350 351 352 350 348 349 348 346 344 345 337 335 333 330 329 329 326 323 323 324 314 314 316 318 326 331 334 338 339 341 339 339 338 336 332 327
328 328 332 333 332 333 340 344 347 349 349 345 345 341 343 342 338 329 322 318 317 317 317 317 316 314 313 314 314 314 314 317 329 333 334 336 338 340 339 337 337 336 334

GFSMW_850_thetae_285.txt.gz
Theta_e
344 345 346 346 347 348 348 350 350 352 353 353 355 353 352 353 353 350 351 353 354 354 355 354 353 354 352 349 354 356 354 353 354 347 332 343 348 345 334 331 343 343 339
344 344 345 346 346 347 349 351 351 352 353 353 353 353 353 353 354 354 357 353 355 354 356 353 355 355 355 357 356 358 356 354 354 352 343 337 345 344 336 330 329 338 337
344 345 345 345 346 346 348 350 352 352 351 350 352 353 356 354 355 351 349 354 357 356 356 358 356 353 355 353 361 354 358 354 353 353 351 348 343 341 335 331 334 338 335
343 344 345 345 345 345 347 350 352 353 353 351 350 351 354 355 354 354 351 358 355 357 357 359 362 361 356 349 354 357 357 353 354 352 353 351 347 344 338 338 339 337 336
348 345 344 344 345 345 345 347 352 354 351 349 346 351 354 354 355 349 355 351 358 355 355 355 360 362 359 357 356 358 358 357 356 352 352 351 351 347 342 339 339 336 337
348 348 346 345 344 345 346 347 350 352 347 351 341 347 355 354 356 353 352 351 350 355 355 358 358 359 360 359 358 354 353 356 354 351 352 351 351 350 350 347 344 338 337
347 348 348 347 344 344 345 346 350 353 352 347 345 338 343 359 356 359 355 351 349 349 348 357 360 356 355 353 350 351 353 349 355 352 353 352 348 351 350 348 346 341 337
346 348 348 348 346 344 345 346 349 353 353 348 342 339 339 351 353 354 354 352 350 349 350 352 354 354 354 352 351 350 352 351 352 350 352 353 353 352 349 345 345 342 339
346 347 348 347 346 345 345 345 346 353 354 351 344 341 339 342 352 351 354 355 352 351 347 349 352 351 352 351 352 351 352 349 353 353 352 352 351 351 349 345 345 343 339
348 348 348 347 346 346 346 347 348 351 353 352 350 347 343 341 341 350 355 354 351 350 344 334 336 353 353 352 352 352 353 353 355 354 353 352 352 352 351 347 344 344 342
346 348 348 348 348 348 348 347 348 349 352 351 352 353 353 352 344 351 350 350 346 346 345 342 338 353 356 356 358 358 355 357 354 353 353 353 352 352 351 348 345 345 344
335 337 348 348 348 349 349 348 348 348 351 351 350 348 347 349 353 341 341 347 347 349 345 346 344 355 358 360 359 359 357 355 354 355 353 354 353 352 352 349 347 346 342
340 340 338 349 348 348 349 349 349 349 350 352 352 349 345 340 341 331 339 346 347 349 355 359 358 361 361 362 358 356 354 353 356 353 353 353 353 353 352 352 351 346 340
343 345 347 349 351 350 350 350 350 350 350 351 353 350 344 335 331 335 340 342 344 345 349 358 359 362 362 359 354 345 343 353 356 353 353 355 345 352 354 352 351 345 339
347 350 353 353 354 353 353 352 351 350 350 350 353 353 346 347 337 341 341 343 344 348 355 361 361 362 360 354 348 339 351 355 352 349 345 347 344 348 352 349 347 344 337
347 349 350 354 356 356 357 356 354 353 351 351 351 354 354 354 348 349 356 354 354 355 363 362 362 361 355 350 339 340 349 355 350 350 350 345 345 349 350 350 345 339 334
343 347 347 349 357 358 358 359 358 358 355 355 352 353 353 350 350 351 359 362 360 364 364 361 358 352 350 346 329 343 350 352 349 349 343 351 346 349 348 346 342 336 334
339 343 346 350 357 357 358 358 358 359 359 356 356 355 354 353 354 355 360 361 363 363 360 360 351 350 349 339 324 342 350 351 349 344 343 344 346 346 346 343 339 327 323
336 336 340 345 350 359 360 361 359 358 360 360 359 358 358 359 361 362 363 364 362 358 359 352 350 349 343 330 319 344 351 348 348 345 343 344 344 344 343 341 337 331 323
334 333 335 339 345 349 356 360 361 358 358 359 359 359 359 360 362 363 363 361 359 358 356 351 349 345 334 322 317 337 346 345 344 345 344 342 344 343 341 339 337 332 326
332 332 333 336 344 348 352 359 360 360 360 360 359 362 363 362 362 363 361 359 357 355 351 349 345 337 325 320 319 319 335 332 339 342 343 342 343 342 338 338 337 331 328
331 331 332 335 337 344 349 351 358 359 360 361 360 363 364 363 359 357 359 359 354 353 350 345 337 329 320 320 318 316 320 325 334 341 341 341 342 337 333 332 332 325 322
331 331 331 333 334 338 344 350 351 355 356 356 359 360 361 360 360 354 357 354 353 351 346 340 338 338 335 323 315 314 315 323 331 337 340 340 337 337 338 336 330 322 332
330 330 330 332 334 335 339 344 348 352 353 353 353 338 353 358 358 357 352 350 348 347 344 338 336 334 330 323 314 316 326 325 327 333 337 338 338 339 338 336 326 331 333
329 330 330 330 332 334 336 339 345 347 351 353 350 353 353 353 353 351 351 349 346 344 341 335 331 328 328 315 313 314 315 318 321 329 334 337 336 337 338 337 335 334 331
327 328 330 329 330 332 334 337 338 342 350 351 350 350 349 347 348 346 342 336 340 335 333 326 318 317 316 314 313 314 314 314 317 329 335 334 336 338 338 338 337 336 334

GFSMW_850_thetae_288.txt.gz
Theta_e
344 345 345 345 346 345 347 349 350 351 353 354 351 353 355 351 355 353 357 352 351 353 352 353 357 353 354 353 349 354 347 349 355 355 351 348 341 349 349 341 337 335 340
344 345 346 346 347 348 347 348 350 352 350 353 355 355 352 357 354 350 356 353 349 356 353 352 352 359 352 352 347 352 355 352 354 353 355 350 347 344 343 343 341 337 337
345 345 346 347 347 348 349 350 350 351 348 353 353 354 353 356 357 354 353 348 349 353 356 354 351 351 348 358 355 354 355 355 351 355 353 351 348 348 347 344 342 344 340
345 346 346 346 347 348 348 350 350 350 350 344 353 352 353 354 351 353 353 353 356 353 352 356 358 355 355 348 355 360 353 351 349 350 352 352 350 350 349 344 346 346 342
345 345 346 347 347 347 348 349 349 349 349 347 343 353 351 356 357 353 357 356 353 347 345 352 355 351 353 359 355 353 355 352 350 354 351 350 351 350 350 349 348 345 339
349 346 345 346 346 346 346 348 349 349 348 351 345 346 352 353 357 358 356 353 349 352 353 357 358 359 356 355 358 358 353 352 350 351 353 351 352 349 347 349 347 344 338
349 349 347 346 346 346 346 346 348 348 348 347 344 341 345 351 352 356 357 351 351 351 356 359 356 358 354 353 351 349 347 353 350 351 350 350 346 346 350 348 345 343 335
345 349 349 348 346 345 345 346 349 348 348 347 345 341 339 345 347 355 357 355 350 351 354 351 350 349 342 348 351 349 350 352 352 350 353 350 348 348 349 348 346 344 341
344 348 349 349 349 346 344 346 348 348 348 347 343 343 339 338 339 344 349 351 351 352 352 346 347 349 349 351 350 349 353 352 352 352 350 349 349 348 348 348 346 343 342
346 348 348 349 349 348 345 345 347 347 347 347 344 341 339 337 339 351 353 355 356 355 350 345 337 332 346 352 351 354 355 355 354 351 353 352 352 351 351 348 347 344 342
347 348 348 348 348 348 347 346 345 348 349 347 350 346 342 339 337 342 348 349 347 346 339 337 344 342 352 356 357 357 356 356 352 354 354 352 352 353 352 350 346 344 343
340 341 345 349 348 348 347 348 348 348 348 348 352 352 348 345 343 339 337 338 336 332 344 347 348 349 351 356 359 356 355 350 349 355 352 351 353 351 353 353 350 345 342
344 347 348 349 353 349 349 349 349 348 349 350 348 352 349 344 342 340 337 333 335 344 346 351 354 357 356 361 360 356 349 342 353 353 352 351 350 347 353 350 345 346 340
348 351 353 354 353 355 351 350 350 349 349 349 349 349 350 347 340 339 334 331 343 344 345 349 354 360 358 361 353 350 339 353 353 351 347 345 343 346 351 348 346 343 338
349 350 350 350 354 356 356 353 353 352 350 350 350 350 350 350 345 335 331 335 341 342 346 351 357 361 361 351 350 343 342 350 349 351 350 341 344 347 350 349 347 341 335
345 349 348 350 353 358 357 358 356 353 354 352 351 351 350 351 349 339 331 335 340 344 353 356 362 361 358 352 349 333 339 349 352 349 344 344 345 348 348 347 344 337 330
341 343 345 348 352 359 359 358 359 358 354 354 357 352 351 351 353 350 341 339 348 356 358 361 361 361 355 350 345 327 336 347 350 345 345 343 345 346 346 343 338 333 335
339 338 338 341 347 353 359 361 360 360 360 357 358 358 355 353 355 357 354 353 354 358 360 362 360 357 352 349 337 326 335 344 346 347 344 345 344 344 344 341 337 335 329
336 336 335 336 342 348 350 355 359 362 361 363 360 361 359 357 358 360 360 356 358 359 361 361 360 357 349 347 326 332 347 346 338 339 343 344 344 343 342 341 333 327 325
334 334 334 335 339 340 349 348 350 359 361 359 362 361 361 362 363 364 360 358 359 360 361 359 358 351 349 343 321 338 350 350 342 329 340 342 343 342 341 340 335 332 325
333 333 333 333 335 337 342 348 348 351 358 360 361 360 361 360 362 363 363 360 361 361 360 357 356 350 347 333 317 325 329 340 343 333 339 341 342 342 340 340 338 334 328
330 332 332 332 333 335 336 338 337 347 344 353 358 360 359 361 362 363 365 363 362 361 358 357 351 348 336 322 320 317 316 320 327 327 336 341 342 339 336 336 336 325 324
329 329 331 332 331 333 334 329 324 331 335 346 353 356 357 357 357 359 364 363 361 358 356 351 345 340 327 324 320 315 315 316 320 326 336 339 337 336 337 337 331 324 330
327 327 328 330 332 331 332 332 328 325 338 338 353 352 352 352 354 354 359 357 354 354 352 347 342 340 337 328 318 319 317 321 323 329 333 337 337 339 338 335 325 332 333
324 325 326 328 331 332 330 332 333 331 331 337 346 349 351 350 347 338 336 349 352 351 347 342 339 338 333 327 316 323 326 319 319 322 330 334 336 338 338 336 329 334 334
326 327 326 327 329 330 329 331 331 332 332 335 338 347 349 348 342 338 336 344 338 348 345 338 337 335 329 317 314 314 315 315 316 323 324 333 334 336 338 338 336 336 334

GFSMW_850_thetae_291.txt.gz
Theta_e
344 342 342 343 340 342 343 346 348 352 351 352 349 352 353 353 353 354 355 354 350 353 351 353 356 355 353 355 347 345 347 348 351 352 352 349 348 347 346 345 345 344 342
344 343 344 344 342 342 344 345 348 349 353 353 349 352 353 353 356 354 354 352 352 352 350 355 353 355 356 349 356 350 351 352 351 346 351 350 349 348 347 346 346 344 343
344 344 345 345 345 345 346 346 347 349 349 349 352 355 356 353 356 355 348 352 350 350 356 343 344 345 344 345 351 352 355 354 352 350 351 353 351 351 349 347 347 346 345
343 344 346 346 347 347 348 348 347 343 345 344 350 354 354 353 353 354 355 353 351 350 349 347 355 357 350 349 354 357 355 355 352 344 349 345 345 350 350 348 344 346 343
344 345 346 346 346 347 348 348 348 347 341 342 346 351 351 349 351 355 356 353 352 349 349 350 352 356 356 355 356 353 355 353 346 351 349 351 347 346 347 345 346 346 341
344 345 345 346 346 347 347 347 348 348 346 341 341 350 352 349 352 358 357 354 353 350 351 349 355 357 358 355 352 348 343 344 351 351 348 348 347 348 348 347 348 344 340
345 346 346 346 346 346 347 347 347 347 347 347 341 342 344 345 353 356 356 359 354 353 351 353 358 358 356 351 341 339 343 350 352 353 351 351 349 347 347 347 347 345 337
345 345 346 346 346 346 347 347 347 347 347 347 346 340 341 339 346 352 354 357 352 349 355 356 354 348 344 335 336 344 346 352 352 353 351 350 349 349 348 348 348 345 341
348 346 345 346 346 346 346 346 346 347 347 347 347 345 340 339 337 344 349 355 353 344 353 352 351 348 346 336 344 349 354 355 355 351 352 352 352 352 351 350 347 346 341
350 348 347 346 346 345 345 345 345 345 346 348 348 347 342 339 338 337 340 342 349 348 351 350 349 344 330 342 351 354 354 355 352 350 354 351 351 351 351 350 348 343 342
349 350 349 348 348 348 346 344 344 345 346 347 347 348 345 339 339 338 338 342 349 352 355 352 342 337 341 347 354 357 354 352 348 353 353 351 353 350 351 352 347 344 342
349 350 352 353 351 348 347 345 345 345 344 342 343 341 337 339 340 338 337 342 345 345 345 343 336 346 346 348 358 357 351 346 348 353 352 350 350 347 350 347 345 345 341
349 348 348 347 354 356 350 347 346 346 346 346 345 344 341 340 337 339 340 338 337 337 337 337 347 351 355 356 358 355 353 342 352 352 343 343 342 345 348 348 345 345 339
348 346 343 345 347 355 358 351 347 347 347 347 348 348 348 345 342 336 335 338 337 331 335 346 349 354 360 358 352 352 348 341 350 346 344 340 343 347 348 348 345 341 337
348 347 347 347 353 357 356 359 356 348 347 348 348 348 349 349 347 343 337 332 334 331 342 348 350 355 358 354 356 352 339 343 347 348 343 340 342 348 348 346 344 338 332
342 344 346 346 348 353 358 359 358 360 355 349 349 349 349 349 350 349 344 336 330 332 341 344 351 354 353 353 355 350 335 340 348 346 342 341 343 345 345 344 340 333 332
338 337 339 339 350 348 353 358 360 361 362 358 357 353 351 350 350 350 349 344 332 333 338 344 353 355 353 352 355 348 332 340 337 344 341 341 343 344 343 340 334 331 334
336 335 335 335 339 344 345 354 354 359 361 364 362 358 360 356 353 352 351 349 346 338 338 349 354 350 350 353 352 345 330 334 328 332 339 340 343 343 342 339 333 333 334
334 334 334 334 335 337 335 333 330 340 355 359 361 360 361 361 359 356 354 352 351 350 351 357 355 348 349 354 350 338 331 342 340 328 340 343 343 342 341 338 334 332 329
333 332 332 332 332 333 333 328 334 330 330 341 355 360 362 360 360 360 358 357 357 357 358 359 356 350 351 353 344 331 340 345 347 330 335 341 342 342 341 338 331 325 326
331 330 331 332 332 331 331 331 326 325 323 324 327 331 355 359 358 361 362 360 358 358 362 360 361 354 354 353 339 335 347 351 347 332 330 340 342 341 340 339 336 330 323
326 329 329 330 331 332 331 332 329 327 324 322 321 323 348 353 358 358 357 357 359 360 362 364 362 360 356 348 331 336 345 347 341 329 325 338 342 340 339 339 337 329 324
324 324 326 328 328 329 330 331 331 329 325 324 322 321 333 350 352 356 354 355 355 357 360 362 358 357 354 342 327 324 339 327 328 325 328 339 339 337 335 335 332 322 322
325 323 323 324 324 325 325 331 331 330 333 331 328 322 326 347 349 351 352 349 345 339 338 352 352 351 343 332 325 322 319 319 324 323 332 337 335 336 336 333 327 332 333
324 325 327 327 327 327 326 327 331 329 332 331 328 324 329 347 348 349 346 348 344 338 335 334 343 343 341 335 325 319 319 322 327 331 333 335 337 338 335 326 332 333 333
321 322 322 321 325 326 325 324 328 327 330 331 331 329 330 338 345 346 345 339 336 334 333 334 333 342 341 339 331 321 323 327 326 331 331 333 337 336 335 331 331 334 333

GFSMW_850_thetae_297.txt.gz
Theta_e
343 343 342 340 341 343 344 343 343 344 336 339 340 345 350 351 350 351 352 354 348 350 349 351 352 353 349 352 351 346 351 349 352 351 351 349 344 345 346 347 347 345 346
344 343 341 339 340 341 341 342 342 343 342 348 343 344 350 349 351 354 352 353 350 350 350 350 352 350 350 351 349 346 352 351 347 352 351 348 343 345 347 346 345 346 346
344 343 339 338 339 340 340 340 340 341 343 345 348 346 349 350 352 351 354 352 352 351 347 351 349 351 349 353 347 346 348 350 347 348 348 346 345 348 348 345 346 346 347
344 344 339 337 337 338 340 341 341 342 343 344 346 345 347 350 351 352 354 354 354 350 349 348 351 351 354 353 353 353 351 351 348 347 349 350 350 350 349 347 348 347 346
344 344 341 339 338 339 341 342 341 342 344 344 344 344 345 349 349 350 352 353 353 355 351 349 350 351 353 354 353 350 353 349 347 350 350 351 351 351 351 350 348 347 345
343 344 344 341 339 340 342 342 342 343 346 345 342 340 341 345 349 351 351 351 351 352 352 352 352 353 354 354 356 351 346 350 349 351 353 353 352 351 351 350 350 347 342
343 343 344 343 341 341 342 343 342 344 346 347 346 340 338 338 343 350 350 349 352 351 351 354 352 353 354 355 354 348 344 349 351 352 351 350 352 351 351 351 350 347 341
340 342 343 342 343 343 343 344 344 345 346 346 347 346 340 337 336 343 347 347 355 355 356 353 352 352 355 351 349 346 344 350 350 348 347 349 351 350 350 351 351 345 340
345 342 341 342 342 342 343 344 345 345 346 346 346 346 346 345 339 337 341 346 353 356 357 354 353 353 352 350 349 337 348 350 349 344 342 350 351 350 349 348 350 347 341
342 343 342 342 342 342 343 344 345 345 345 346 346 346 346 346 346 343 339 338 344 352 354 355 355 352 351 351 350 343 347 350 349 344 342 350 349 348 347 345 345 346 343
341 344 342 342 342 343 343 344 345 345 346 346 346 346 346 346 347 347 346 341 339 339 344 348 350 351 351 353 351 346 347 347 348 346 344 347 342 343 345 345 344 343 342
344 343 344 344 344 344 345 345 345 345 345 345 346 346 345 346 347 347 347 347 341 339 338 338 343 348 351 353 345 349 349 348 350 348 337 343 341 342 345 346 343 342 341
355 354 353 352 350 349 348 347 346 346 346 346 346 346 345 345 345 344 345 343 342 339 338 337 340 347 350 350 346 351 348 349 351 350 335 342 339 344 345 344 342 343 339
351 354 355 356 357 358 359 359 358 356 349 345 345 346 345 345 346 344 343 341 336 337 338 337 337 343 345 346 344 349 349 350 352 349 334 340 339 341 345 343 342 344 337
346 346 346 348 350 354 354 356 359 358 354 348 349 350 349 349 349 347 346 347 344 340 334 339 338 337 336 336 345 346 347 350 352 349 336 336 340 339 345 343 341 339 334
339 338 338 340 339 337 342 347 352 356 360 356 354 353 353 352 352 351 351 350 349 348 346 337 339 336 333 335 346 344 347 349 353 348 338 332 340 341 344 343 340 331 329
334 334 333 333 334 334 328 327 326 329 336 342 346 348 351 356 358 357 356 354 352 352 351 349 341 336 332 337 345 343 346 349 352 346 337 326 338 341 343 341 331 330 331
332 332 332 332 331 331 331 330 329 327 325 324 324 324 324 324 337 354 358 358 357 355 354 352 351 348 339 337 340 342 345 348 351 345 336 327 335 341 342 339 330 331 331
330 331 332 331 331 331 330 329 327 326 325 323 321 320 320 322 322 324 344 356 358 356 355 356 354 353 352 347 346 344 344 347 349 343 334 329 331 340 341 338 330 330 331
324 324 324 326 327 328 328 327 326 326 327 324 323 321 318 318 319 320 321 331 351 357 355 355 354 353 354 353 352 349 349 347 347 342 336 333 326 340 340 338 333 329 328
324 324 324 324 324 324 324 324 323 324 325 326 325 323 322 320 319 320 319 320 331 344 356 353 353 354 354 354 352 350 350 348 344 340 339 334 325 338 340 338 336 329 325
324 324 323 324 324 324 324 323 323 322 321 322 323 325 327 323 320 321 320 321 337 349 354 353 350 348 349 351 342 338 340 340 343 339 336 336 325 335 338 338 336 331 325
320 319 320 320 320 321 323 326 326 326 326 325 324 323 328 328 326 325 323 322 335 346 347 349 346 343 341 344 342 339 338 332 340 341 337 339 325 335 339 338 336 333 328
317 318 318 318 319 319 320 320 320 321 323 324 323 323 322 325 326 325 325 325 331 340 344 347 346 341 337 336 334 334 333 333 334 339 338 341 331 328 338 338 337 336 331
318 317 316 316 316 319 320 320 320 320 320 324 325 324 326 325 325 326 326 325 327 337 341 342 342 342 340 340 337 336 332 336 338 337 344 342 333 334 338 337 337 335 328
315 314 314 315 315 319 320 320 319 321 321 320 321 324 324 326 326 327 326 326 328 328 337 340 340 341 342 338 335 335 331 337 337 340 340 336 331 331 336 335 336 335 326